Location: Newark
(46.7000°N, 60.6000°W)
Time: 11:50:46
(UTC+00:00)

A-11 Canister half - Pass Details

Date: 05 November 2020
Orbit: 1516 x 1684 km, 47.2° (Epoch: 04 December)

Event Time Altitude Azimuth Distance (km) Brightness Sun altitude
Rises 23:30:41 0° 252° (WSW) 4,932 12.6 -29.5°
Reaches altitude 10° 23:33:51 10° 252° (WSW) 3,946 11.9 -30.0°
Maximum altitude 23:44:04 86° 166° (SSE) 1,678 9.0 -31.7°
Enters shadow 23:46:02 64° 85° (E) 1,812 9.0 -32.1°
